FLOCK 4A-20 (44091 NORAD) Tracking and Keplerian Element Data

This shows tracking and keplerian element data for the satellite.

Feedback or suggestion? Click here.




ElementValue
Catalog44091
NameFLOCK 4A-20
Epoch Orbit309
Epoch Day111.72453219
Epoch Year2019
RAAN172.1106
Inclination97.4627
Eccentricity0.0013258
Argument of Perigee209.0716
Mean Anonmoly150.9783
Mean Motion15.2162782
Decay Rate9.8E-06
L11 44091U 19018P 19111.72453219 .00000980 00000-0 46435-4 0 9996
L22 44091 97.4627 172.1106 0013258 209.0716 150.9783 15.21627820 3096

Live tracking and technical data element details for FLOCK 4A-20 (NORAD 44091). FLOCK 4A-20 can be tracked NOW for your location showing map with azimuth and elevation plus other details from your city location.

Track the satellite on the map from your city or location and see movement details for azimuth, elevation, latitude, longitude, range, height, and movement on the map or in text.







IsCatalogInMostPopularTable: catalog: 44091, numindb: 7
Update: records affected: 1



GetName: 44091 FLOCK 4A-20

Hit Count: updated at: Tue, 23 Apr 2019 01:59:06 GMT